TOURFACTS.DK  
Stats and Facts from Tour de France.

Tour de France 2017 starts in 35 days
  Riders   Stages   Teams   Summits   Yearly  


 
Search by year

 After:  2016 - Stage 21:   14626 starters.
  5086 different riders.
  632 teams.
  2211 stages.
  454 restdays.
  436049.60 km.
  5622 abandonnees.


Top 3
Christopher Froome89:04:48
Romain Bardet89:08:53
Nairo Quintana89:09:09
Rafal Majka209 pt.
Thomas De Gendt130 pt.
Jarlinson Pantano ..121 pt.
Peter Sagan470 pt.
Marcel Kittel228 pt.
Michael Matthews199 pt.
Adam Yates89:09:30
Louis Meintjes89:11:46
Emanuel Buchmann89:52:28
Facts from Tour de France 2016
  |   Stages.  |   Stage winners.  |   Days in yellow  |   Average speed.  |   Route.  |   Teams.  |   All riders.  |   Rookies.  |   Withdrawls.  |  

  |   GC.  |   Polka  |   Green  |   White  |   Summits. (In tour)  |   Summits. (Points)  |   Miscellaneous.  |  

Stage 7 on 08 - 07 - 2016
         Owning:    Greg Van Avermaet      Thomas De Gendt      Mark Cavendish      Julian Alaphilippe  

Pick a stage:  1 2 3 4 5 6 7 8 9 10 11 12 13 14 15 16 17 18 19 20 21
  L'Isle-JourdainLac de Payolle | Dist: 162.00 km.
Cat: 4Côte de CapvernITAVincenzo Nibali1 points 
Cat: 1Col d'AspinENGStephen Cummings10 points 

Average speed for all riders in stage:  40,488 km./hr.
    Place:Name:Team:Time:Km/h:
ENGStephen CummingsZAFDimension Data03:48:09  +  00:00:00=42,604 
ZAFDaryl ImpeyAUSORICA BikeExchange03:49:13  +  00:01:04=42,405 
ESPDaniel NavarroFRACofidis – Solutions Crédits03:49:13  +  00:01:04=42,405 
4 ITAVincenzo NibaliKAZAstana Pro Team03:50:07  +  00:01:58=42,239 
5 BELGreg Van AvermaetUSABMC Racing Team03:51:06  +  00:02:57=42,060 
74 ENGAdam YatesAUSORICA BikeExchange03:51:39  +  00:03:30=41,960 
6 ESPLuis Angel MateFRACofidis – Solutions Crédits03:51:46  +  00:03:37=41,939 
7 WALGeraint ThomasGBRSky Procycling03:51:46  +  00:03:37=41,939 
8 NLDWout PoelsGBRSky Procycling03:51:46  +  00:03:37=41,939 
9 ESPGorka Izaguirre InsaustiESPMovistar Team03:51:46  +  00:03:37=41,939 
10 ESPAlejandro ValverdeESPMovistar Team03:51:46  +  00:03:37=41,939 
11 KENChristopher FroomeGBRSky Procycling03:51:46  +  00:03:37=41,939 
12 CZERoman KreuzigerRUSTinkoff03:51:46  +  00:03:37=41,939 
13 AUSRichie PorteUSABMC Racing Team03:51:46  +  00:03:37=41,939 
14 FRAJulian AlaphilippeBELEtixx - Quick Step03:51:46  +  00:03:37=41,939 
15 ENGDaniel MartinBELEtixx - Quick Step03:51:46  +  00:03:37=41,939 
16 FRARomain BardetFRAAg2r La Mondiale03:51:46  +  00:03:37=41,939 
17 FRAPierre RollandUSATeam Cannondale Drapac03:51:46  +  00:03:37=41,939 
18 COLNairo QuintanaESPMovistar Team03:51:46  +  00:03:37=41,939 
19 NLDStef ClementCHEIAM Cycling03:51:46  +  00:03:37=41,939 
20 NLDBauke MollemaUSATrek – Segafredo03:51:46  +  00:03:37=41,939 
21 DEUEmanuel BuchmannDEUBora-Argon 1803:51:46  +  00:03:37=41,939 
22 NLDWilco KeldermanNLDTeam Lotto NL - Jumbo03:51:46  +  00:03:37=41,939 
23 ZAFLouis MeintjesITALampre-Merida03:51:46  +  00:03:37=41,939 
24 USATejay Van GarderenUSABMC Racing Team03:51:46  +  00:03:37=41,939 
25 ESPJoaquim RodriguezRUSTeam Katusha03:51:46  +  00:03:37=41,939 
26 ITADomenico PozzovivoFRAAg2r La Mondiale03:51:46  +  00:03:37=41,939 
27 ITAFabio AruKAZAstana Pro Team03:51:46  +  00:03:37=41,939 
28 ESPMikel NieveGBRSky Procycling03:51:46  +  00:03:37=41,939 
29 COLSergio Luis HenaoGBRSky Procycling03:51:46  +  00:03:37=41,939 
30 ESPAlberto ContadorRUSTinkoff03:51:46  +  00:03:37=41,939 
31 CHESébastien ReichenbachFRAFDJ03:51:46  +  00:03:37=41,939 
32 DNKJakob FuglsangKAZAstana Pro Team03:51:46  +  00:03:37=41,939 
33 FRAWarren BarguilDEUTeam Giant Alpecin03:51:46  +  00:03:37=41,939 
34 BELJurgen Van Den BroeckRUSTeam Katusha03:51:46  +  00:03:37=41,939 
36 LUXFränk SchleckUSATrek – Segafredo03:52:09  +  00:04:00=41,869 
41 COLJarlinson Pantano GomezCHEIAM Cycling03:52:09  +  00:04:00=41,869 
37 ARGEduardo SepulvedaFRAFortuneo - Vital Concept03:52:11  +  00:04:02=41,863 
39 ITADamiano CarusoUSABMC Racing Team03:52:11  +  00:04:02=41,863 
40 CHEMathias FrankCHEIAM Cycling03:52:11  +  00:04:02=41,863 
35 USAAlex HowesUSATeam Cannondale Drapac03:52:18  +  00:04:09=41,842 
38 ESPHaimar ZubeldiaUSATrek – Segafredo03:52:18  +  00:04:09=41,842 
45 NZLGeorge BennettNLDTeam Lotto NL - Jumbo03:52:26  +  00:04:17=41,818 
43 FRAFabrice JeandesbozFRADirect Energie03:52:36  +  00:04:27=41,788 
42 FRAAlexis VuillermozFRAAg2r La Mondiale03:52:38  +  00:04:29=41,782 
44 ESPDaniel MorenoESPMovistar Team03:52:38  +  00:04:29=41,782 
46 RUSIlnur ZakarinRUSTeam Katusha03:52:43  +  00:04:34=41,768 
47 ESTTanel KangertKAZAstana Pro Team03:52:56  +  00:04:47=41,729 
48 DEUPaul VossDEUBora-Argon 1803:53:03  +  00:04:54=41,708 
49 DEUSimon GeschkeDEUTeam Giant Alpecin03:53:03  +  00:04:54=41,708 
53 ESPMikel Landa MeanaGBRSky Procycling03:53:07  +  00:04:58=41,696 
54 POLRafal MajkaRUSTinkoff03:53:07  +  00:04:58=41,696 
50 AUTPatrick KonradDEUBora-Argon 1803:53:12  +  00:05:03=41,681 
51 BELJan BakelantsFRAAg2r La Mondiale03:53:12  +  00:05:03=41,681 
52 ITADiego RosaKAZAstana Pro Team03:53:14  +  00:05:05=41,675 
55 NLDTom-Jelte SlagterUSATeam Cannondale Drapac03:53:34  +  00:05:25=41,616 
56 HRVRobert KiserlovskiRUSTinkoff03:53:39  +  00:05:30=41,601 
66 FRABrice FeilluFRAFortuneo - Vital Concept03:53:57  +  00:05:48=41,547 
67 FRASylvain ChavanelFRADirect Energie03:53:57  +  00:05:48=41,547 
68 DEUTony MartinBELEtixx - Quick Step03:53:57  +  00:05:48=41,547 
69 BELSerge PauwelsZAFDimension Data03:54:32  +  00:06:23=41,444 
57 CHESteve MorabitoFRAFDJ03:54:50  +  00:06:41=41,391 
58 SVNJan PolancITALampre-Merida03:54:50  +  00:06:41=41,391 
59 FRAThibaut PinotFRAFDJ03:54:50  +  00:06:41=41,391 
60 NLDLaurens ten DamDEUTeam Giant Alpecin03:54:50  +  00:06:41=41,391 
61 FRAAmaël MoinardUSABMC Racing Team03:54:50  +  00:06:41=41,391 
62 FRAPierre-Luc PérichonFRAFortuneo - Vital Concept03:54:50  +  00:06:41=41,391 
63 USALawson CraddockUSATeam Cannondale Drapac03:54:50  +  00:06:41=41,391 
64 ESPRubén PlazaAUSORICA BikeExchange03:54:50  +  00:06:41=41,391 
65 CANAntoine DuchesneFRADirect Energie03:54:50  +  00:06:41=41,391 
73 USAPeter StetinaUSATrek – Segafredo03:55:19  +  00:07:10=41,306 
70 AUTGeorg PreidlerDEUTeam Giant Alpecin03:55:44  +  00:07:35=41,233 
71 FRAArnold JeannessonFRACofidis – Solutions Crédits03:55:44  +  00:07:35=41,233 
72 FRAMickaël CherelFRAAg2r La Mondiale03:55:48  +  00:07:39=41,221 
75 FRARomain SicardFRADirect Energie03:57:02  +  00:08:53=41,007 
76 DNKMatti BreschelUSATeam Cannondale Drapac03:57:02  +  00:08:53=41,007 
77 FRAAnthony DelaplaceFRAFortuneo - Vital Concept03:57:02  +  00:08:53=41,007 
78 CHEMartin ElmigerCHEIAM Cycling03:57:02  +  00:08:53=41,007 
79 ESPLuis León SánchezKAZAstana Pro Team03:57:08  +  00:08:59=40,990 
80 DEUPaul MartensNLDTeam Lotto NL - Jumbo03:57:16  +  00:09:07=40,967 
81 ESPAlberto LosadaRUSTeam Katusha03:57:26  +  00:09:17=40,938 
82 ESPAngel ViciosoRUSTeam Katusha03:57:26  +  00:09:17=40,938 
83 FRAJérôme CoppelCHEIAM Cycling03:58:38  +  00:10:29=40,732 
84 BELOliver NaesenCHEIAM Cycling03:59:24  +  00:11:15=40,602 
85 BELJürgen RoelandtsBELLotto Soudal03:59:24  +  00:11:15=40,602 
86 CZEJan BártaDEUBora-Argon 1803:59:24  +  00:11:15=40,602 
87 ETHTsgabu Gebremaryan GrmayITALampre-Merida03:59:24  +  00:11:15=40,602 
88 SVNLuka PibernikITALampre-Merida04:00:58  +  00:12:49=40,338 
89 BELJasper StuyvenUSATrek – Segafredo04:00:58  +  00:12:49=40,338 
90 HRVKristijan DurasekITALampre-Merida04:00:58  +  00:12:49=40,338 
91 ITAPaolo TiralongoKAZAstana Pro Team04:00:58  +  00:12:49=40,338 
92 DNKChris Anker SørensenFRAFortuneo - Vital Concept04:01:30  +  00:13:21=40,248 
93 BELThomas De GendtBELLotto Soudal04:01:30  +  00:13:21=40,248 
94 UKRAndriy GrivkoKAZAstana Pro Team04:01:30  +  00:13:21=40,248 
95 DNKMichael ValgrenRUSTinkoff04:01:30  +  00:13:21=40,248 
96 NLDTom DumoulinDEUTeam Giant Alpecin04:01:30  +  00:13:21=40,248 
97 FRANicolas EdetFRACofidis – Solutions Crédits04:01:30  +  00:13:21=40,248 
98 ERINatnael Teweldemedhin BerhaneZAFDimension Data04:01:30  +  00:13:21=40,248 
99 ZAFReinardt Janse Van RensburgZAFDimension Data04:01:30  +  00:13:21=40,248 
100 ESPMarkel IrizarUSATrek – Segafredo04:01:30  +  00:13:21=40,248 
101 NLDDylan Van BaarleUSATeam Cannondale Drapac04:01:30  +  00:13:21=40,248 
102 FRAAngelo TulikFRADirect Energie04:01:30  +  00:13:21=40,248 
103 FRABryan CoquardFRADirect Energie04:01:30  +  00:13:21=40,248 
104 ESPJon Izaguirre InsaustiESPMovistar Team04:01:30  +  00:13:21=40,248 
105 FRAFlorian VachonFRAFortuneo - Vital Concept04:01:30  +  00:13:21=40,248 
106 KAZAlexey LutsenkoKAZAstana Pro Team04:01:30  +  00:13:21=40,248 
107 FRAArthur VichotFRAFDJ04:01:30  +  00:13:21=40,248 
108 FRAMatthieu LadagnousFRAFDJ04:01:30  +  00:13:21=40,248 
109 JPNYukiya ArashiroITALampre-Merida04:01:30  +  00:13:21=40,248 
110 FRAJérémy RoyFRAFDJ04:01:30  +  00:13:21=40,248 
111 DEUMarcus BurghardtUSABMC Racing Team04:01:57  +  00:13:48=40,174 
112 NLDSebastian LangeveldUSATeam Cannondale Drapac04:02:51  +  00:14:42=40,025 
113 CHEFabian CancellaraUSATrek – Segafredo04:02:51  +  00:14:42=40,025 
114 ITAMatteo BonoITALampre-Merida04:02:51  +  00:14:42=40,025 
115 SVNBorut BozicFRACofidis – Solutions Crédits04:03:08  +  00:14:59=39,978 
116 BELIljo KeisseBELEtixx - Quick Step04:05:34  +  00:17:25=39,582 
117 ITAFabio SabatiniBELEtixx - Quick Step04:05:34  +  00:17:25=39,582 
118 AUSAdam HansenBELLotto Soudal04:05:34  +  00:17:25=39,582 
119 CHEReto HollensteinCHEIAM Cycling04:05:34  +  00:17:25=39,582 
120 NLDRamon SinkeldamDEUTeam Giant Alpecin04:05:34  +  00:17:25=39,582 
121 NLDRoy CurversDEUTeam Giant Alpecin04:05:34  +  00:17:25=39,582 
122 ITACesare BenedettiDEUBora-Argon 1804:05:34  +  00:17:25=39,582 
123 NLDBert-Jan LindemanNLDTeam Lotto NL - Jumbo04:05:34  +  00:17:25=39,582 
124 AUSRohan DennisUSABMC Racing Team04:05:34  +  00:17:25=39,582 
125 ITAJacopo GuarnieriRUSTeam Katusha04:05:34  +  00:17:25=39,582 
126 DEURobert WagnerNLDTeam Lotto NL - Jumbo04:05:34  +  00:17:25=39,582 
127 CHEGregory RastUSATrek – Segafredo04:05:34  +  00:17:25=39,582 
128 CHEMichael SchärUSABMC Racing Team04:05:34  +  00:17:25=39,582 
129 AUSSimon GerransAUSORICA BikeExchange04:05:34  +  00:17:25=39,582 
130 AUSLuke DurbridgeAUSORICA BikeExchange04:05:34  +  00:17:25=39,582 
131 NLDTimo RoosenNLDTeam Lotto NL - Jumbo04:05:34  +  00:17:25=39,582 
132 NORAlexander KristoffRUSTeam Katusha04:05:34  +  00:17:25=39,582 
133 USABrent BookwalterUSABMC Racing Team04:05:34  +  00:17:25=39,582 
134 SVNKristjan KorenUSATeam Cannondale Drapac04:05:34  +  00:17:25=39,582 
135 PRTRui CostaITALampre-Merida04:05:34  +  00:17:25=39,582 
136 NOREdvald Boasson HagenZAFDimension Data04:05:34  +  00:17:25=39,582 
137 POLBartosz HuzarskiDEUBora-Argon 1804:05:34  +  00:17:25=39,582 
138 FRAThomas VoecklerFRADirect Energie04:05:34  +  00:17:25=39,582 
139 ERIDaniel TeklehaimanotZAFDimension Data04:05:34  +  00:17:25=39,582 
140 NORSondre Holst EngerCHEIAM Cycling04:05:34  +  00:17:25=39,582 
141 NORVegard BreenFRAFortuneo - Vital Concept04:05:34  +  00:17:25=39,582 
142 FRA Alexis GougeardFRAAg2r La Mondiale04:05:34  +  00:17:25=39,582 
143 LUXBen GastauerFRAAg2r La Mondiale04:05:34  +  00:17:25=39,582 
144 FRACédric PineauFRAFDJ04:05:34  +  00:17:25=39,582 
145 FRACyril GautierFRAAg2r La Mondiale04:05:34  +  00:17:25=39,582 
146 FRASamuel DumoulinFRAAg2r La Mondiale04:05:34  +  00:17:25=39,582 
147 COLWinner AnaconaESPMovistar Team04:05:34  +  00:17:25=39,582 
148 FRAArmindo FonsecaFRAFortuneo - Vital Concept04:05:34  +  00:17:25=39,582 
149 BELMaarten WynantsNLDTeam Lotto NL - Jumbo04:05:34  +  00:17:25=39,582 
150 CHEMichael AlbasiniAUSORICA BikeExchange04:05:34  +  00:17:25=39,582 
151 ITAMatteo TosattoRUSTinkoff04:05:34  +  00:17:25=39,582 
152 LTURamunas NavardauskasUSATeam Cannondale Drapac04:05:34  +  00:17:25=39,582 
153 IRLChristopher Juul JensenAUSORICA BikeExchange04:05:34  +  00:17:25=39,582 
154 AUSMathew HaymanAUSORICA BikeExchange04:05:34  +  00:17:25=39,582 
155 BELJulien VermoteBELEtixx - Quick Step04:05:34  +  00:17:25=39,582 
156 WALLuke RoweGBRSky Procycling04:05:34  +  00:17:25=39,582 
157 NLDAlbert TimmerDEUTeam Giant Alpecin04:05:34  +  00:17:25=39,582 
158 DEUJohn DegenkolbDEUTeam Giant Alpecin04:05:34  +  00:17:25=39,582 
159 DEUMarcel KittelBELEtixx - Quick Step04:05:34  +  00:17:25=39,582 
160 FRAYohann GèneFRADirect Energie04:05:34  +  00:17:25=39,582 
161 FRAJérôme CousinFRACofidis – Solutions Crédits04:05:34  +  00:17:25=39,582 
162 FRAWilliam BonnetFRAFDJ04:05:34  +  00:17:25=39,582 
163 FRATony GallopinBELLotto Soudal04:05:34  +  00:17:25=39,582 
164 BLRVasil KiryienkaGBRSky Procycling04:05:34  +  00:17:25=39,582 
165 ITADavide CimolaiITALampre-Merida04:05:34  +  00:17:25=39,582 
166 DEUAndreas SchillingerDEUBora-Argon 1804:05:34  +  00:17:25=39,582 
167 FRAAnthony RouxFRAFDJ04:05:34  +  00:17:25=39,582 
168 ESPJesus HerradaESPMovistar Team04:05:34  +  00:17:25=39,582 
169 BELEdward TheunsUSATrek – Segafredo04:05:34  +  00:17:25=39,582 
170 FRAAdrien PetitFRADirect Energie04:05:34  +  00:17:25=39,582 
171 NZLGregory HendersonBELLotto Soudal04:05:34  +  00:17:25=39,582 
172 AUSLeigh HowardCHEIAM Cycling04:05:34  +  00:17:25=39,582 
173 NLDDylan GroenewegenNLDTeam Lotto NL - Jumbo04:05:34  +  00:17:25=39,582 
174 CZEPetr VakocBELEtixx - Quick Step04:07:37  +  00:19:28=39,254 
175 AUTBernhard EiselZAFDimension Data04:08:18  +  00:20:09=39,146 
176 AUSMark RenshawZAFDimension Data04:08:18  +  00:20:09=39,146 
177 DEUMarcel SiebergBELLotto Soudal04:08:18  +  00:20:09=39,146 
178 IMNMark CavendishZAFDimension Data04:08:18  +  00:20:09=39,146 
179 BELJens DebusschereBELLotto Soudal04:08:18  +  00:20:09=39,146 
180 DEUAndré GreipelBELLotto Soudal04:08:18  +  00:20:09=39,146 
181 AUSMichael MatthewsAUSORICA BikeExchange04:08:18  +  00:20:09=39,146 
182 PRTNelson OliveiraESPMovistar Team04:08:18  +  00:20:09=39,146 
183 ESPImanol ErvitiESPMovistar Team04:08:18  +  00:20:09=39,146 
184 SVKPeter SaganRUSTinkoff04:08:18  +  00:20:09=39,146 
185 ITAOscar GattoRUSTinkoff04:08:18  +  00:20:09=39,146 
186 BRAMaximilano RichezeBELEtixx - Quick Step04:08:18  +  00:20:09=39,146 
187 BELSam BennettDEUBora-Argon 1804:08:18  +  00:20:09=39,146 
188 AUTMarco HallerRUSTeam Katusha04:08:18  +  00:20:09=39,146 
189 ENGIan StannardGBRSky Procycling04:08:18  +  00:20:09=39,146 
190 ENGDaniel McLayFRAFortuneo - Vital Concept04:08:18  +  00:20:09=39,146 
191 DNKLars BakBELLotto Soudal04:08:18  +  00:20:09=39,146 
192 NZLShane ArchboldDEUBora-Argon 1804:08:18  +  00:20:09=39,146 
193 POLMaciej BodnarRUSTinkoff04:08:18  +  00:20:09=39,146 
194 FRACyril LemoineFRACofidis – Solutions Crédits04:08:30  +  00:20:21=39,115 
195 BELSep VanmarckeNLDTeam Lotto NL - Jumbo04:08:30  +  00:20:21=39,115 
196 FRAGeoffrey SoupeFRACofidis – Solutions Crédits04:11:27  +  00:23:18=38,656 
197 FRAChristophe LaporteFRACofidis – Solutions Crédits04:11:27  +  00:23:18=38,656 
198 DNKMichael MørkøvRUSTeam Katusha04:12:44  +  00:24:35=38,460 


Todays birthdays.

1896  Georges Cuvelier
1909  Gaspard Rinaldi
1913  Erich Bautz
1913  Alexandre Pawlisiak
1916  Edmond De Lathouwer
1918  Prosper Depredomme
1929  Eluf Dalgaard
1933  Jean Graczyk
1942  Guy Seyve
1943  Henri Rabaute
1964  Jan Siemons
1966  Andrew Bishop
1975  Andrea Brognara
1984  Mikel Nieve